STARLINK-3071, 49147

Orbit data source: Space-Track

STARLINK-3071, 49147 is a payload satellite owned by SpaceX/Seattle (US) in LEO that was launched on Tue, 14 Sep 2021 UTC via an FALCON 9 launch vehicle from the Air Force Western Test Range (AFWTR). Payload-class satellites include a variety of spacecraft equipped with specific instruments for various scientific and technological missions. These include communications satellites like Starlink; space stations such as the ISS; scientific satellites like the Hubble; Earth observation satellites from companies like Planet Labs, Umbra, and HawkEye 360; GPS; miniature CubeSats for education and research; and military/defense satellites.

Loading next visibility...
Identifier
49147, 2021-082T
Orbit
LEO
Country
Flag of USUS
Related business
Manufacturer
SpaceX/Seattle
Mission
Operational Commercial Communications
Bus & Motor
STARLINK, Unknown motor
Mass
297 kg wet, ~275 kg dry
Launch date (UTC)
2021-09-14 (4 years ago)
Launch vehicle
FALCON 9
Launch site
Air Force Western Test Range (AFWTR)
Object type
Payload
Rocket body
Debris
Shape & HBR
Box + 1 Pan, 10.1 m
Radar Cross Section
13.562 m², Large (>1 m²)

Expand to show TLE details & history
Last TLE update: 23 hours ago

TLE from 23 hours ago
0 STARLINK-3071
1 49147U 21082T   25348.67799024  .00000683  00000-0  65043-4 0  9993
2 49147  69.9999 108.8031 0003409 267.9170  92.1599 14.98325621234237
Epoch: 2025-12-14T16:16Z
TLE epoch observation values (Epoch: 2025-12-14T16:16:18.356Z)
Latitude
-0.00001°
Longitude
141.13915°
Altitude
574.583 km
Speed
7.574 km/s
True Right ascension
07h 15m 12s
True Declination
0° 00' 00"
Sunlit
Object was in full shadow at epoch
Visualization orbit readout
Latitude
Unknown
Longitude
Unknown
Altitude
Unknown
Speed
Unknown
Apparent Right ascension
Unknown
Apparent Declination
Unknown
Sunlit
N/A
Visualization observer readout
Local Sidereal Time
13:24:35
Azimuth
Unknown
Elevation
Unknown
Doppler factor
Unknown
Orbital elements
Apogee altitude
572.386 km
Perigee altitude
567.649 km
Semi-major axis
6,948.155 km
Eccentricity
0.00034
Inclination
69.9999°
RAAN
108.8031°
Arg. of periapsis
267.917°
True anomaly
92.19894°
Mean anomaly
92.1599°
Eccentric anomaly
92.17942°
Mean motion
3.74748 °/min
Orbital period
96.06 mins
BSTAR
0.000065043
Loading maneuver chart data...
Computing Atmospheric mass density...
Loading historical data...
Loading historical data...
Loading historical data...
Loading historical data...
Loading historical data...
Loading historical data...
Loading historical data...

Documentation

Showing up to 5 results
|